Flight Information

DEPARTURE
EL MONTE, CA
Elevation:
295
Runways:
1/19 - 3995x75 - ASPH-G
Active PE Departure:
19
Current PE ATIS:
N
Altimeter:
30.07
Remarks:
ATIS:
118.75 626-444-1107
Ground:
125.9
Tower:
121.2
DESTINATION
,
Elevation:
TPA:
1000 (est.)


6774.3 NM73° True-14° Var59° HDG

Flight Plan:
(click to file on line)

1. Type
2. Aircraft Identification
3. Aircraft Type / Special Equipment
4. True Airspeed
kts
5. Departure Airport
(ICAO code)
6. Arriving Airport
(ICAO code)
7. Cruising Altitude
ft
8. Alternate Airport
(ICAO code)
9. Route of Flight
10. Remarks


00:00:00 Departure ATIS: Destination ATIS:

Clearance Limit:
Route:
Altitude: Expect in minutes
Frequency:
Transponder: (7500 Hijack / 7600 Lost Comms / 7700 Emergency)


KEMT 211745Z 00000KT 10SM CLR 32/13 A3007 RMK RY01 PAPI OTS
Time: 2021-09-21T17:45:00Z
1632247460
Winds: calm
Visibility: 10.0 sm
Clouds (AGL): CLR
Temperature: 32.0 C
Dew Point: 13.0 C
Pressure: 30.070866 in Hgbr


Notes:

Data extracted from FAA Digital Chart Supplement. Effective: 0901Z Thursday, AUG 12, 2021 to 0901Z Thursday, OCT 7, 2021
Current ATIS data is provided courtisy of PilotEdge.